StationID,Date,MaxTemp,MinTemp,Precipitation,Snowfall,SnowDepth
"USW00024257","1986-09-01",102.02,73.94,0.00,0.00,0.00
"USW00024257","1986-09-02",104.00,80.96,0.00,0.00,0.00
"USW00024257","1986-09-03",107.06,62.96,0.00,0.00,0.00
"USW00024257","1986-09-04",98.96,66.02,0.00,0.00,0.00
"USW00024257","1986-09-05",102.92,66.02,0.00,0.00,0.00
"USW00024257","1986-09-06",102.02,66.02,0.00,0.00,0.00
"USW00024257","1986-09-07",89.96,64.04,0.00,0.00,0.00
"USW00024257","1986-09-08",80.06,59.00,0.00,0.00,0.00
"USW00024257","1986-09-09",86.00,51.98,0.00,0.00,0.00
"USW00024257","1986-09-10",91.04,60.98,0.00,0.00,0.00
"USW00024257","1986-09-11",89.06,53.96,0.00,0.00,0.00
"USW00024257","1986-09-12",75.02,57.92,0.00,0.00,0.00
"USW00024257","1986-09-13",77.00,53.96,0.00,0.00,0.00
"USW00024257","1986-09-14",71.06,55.04,28.00,0.00,0.00
"USW00024257","1986-09-15",66.92,53.96,58.00,0.00,0.00
"USW00024257","1986-09-16",62.06,51.98,36.00,0.00,0.00
"USW00024257","1986-09-17",69.98,53.96,145.00,0.00,0.00
"USW00024257","1986-09-18",62.06,48.02,104.00,0.00,0.00
"USW00024257","1986-09-19",66.92,46.04,3.00,0.00,0.00
"USW00024257","1986-09-20",73.04,48.92,0.00,0.00,0.00
"USW00024257","1986-09-21",78.08,46.94,0.00,0.00,0.00
"USW00024257","1986-09-22",84.02,53.96,0.00,0.00,0.00
"USW00024257","1986-09-23",71.96,46.94,23.00,0.00,0.00
"USW00024257","1986-09-24",66.02,55.04,48.00,0.00,0.00
"USW00024257","1986-09-25",64.04,48.02,20.00,0.00,0.00
"USW00024257","1986-09-26",57.92,42.98,89.00,0.00,0.00
"USW00024257","1986-09-27",69.08,39.92,0.00,0.00,0.00
"USW00024257","1986-09-28",75.02,46.04,0.00,0.00,0.00
"USW00024257","1986-09-29",80.96,51.08,0.00,0.00,0.00
"USW00024257","1986-09-30",80.96,53.06,0.00,0.00,0.00
"USW00024257","1986-10-01",73.04,57.02,0.00,0.00,0.00
"USW00024257","1986-10-02",75.02,53.96,0.00,0.00,0.00
"USW00024257","1986-10-03",80.06,50.00,0.00,0.00,0.00
"USW00024257","1986-10-04",89.06,53.96,0.00,0.00,0.00
"USW00024257","1986-10-05",91.94,60.98,0.00,0.00,0.00
"USW00024257","1986-10-06",91.94,51.08,0.00,0.00,0.00
"USW00024257","1986-10-07",91.04,51.98,0.00,0.00,0.00
"USW00024257","1986-10-08",91.04,53.06,0.00,0.00,0.00
"USW00024257","1986-10-09",93.92,55.04,0.00,0.00,0.00
"USW00024257","1986-10-10",93.92,53.96,0.00,0.00,0.00
"USW00024257","1986-10-11",82.04,53.06,0.00,0.00,0.00
"USW00024257","1986-10-12",80.96,46.94,0.00,0.00,0.00
"USW00024257","1986-10-13",78.08,39.92,0.00,0.00,0.00
"USW00024257","1986-10-14",80.96,41.00,0.00,0.00,0.00
"USW00024257","1986-10-15",82.04,42.08,0.00,0.00,0.00
"USW00024257","1986-10-16",75.02,44.96,18.00,0.00,0.00
"USW00024257","1986-10-17",60.98,46.04,28.00,0.00,0.00
"USW00024257","1986-10-18",71.06,42.08,0.00,0.00,0.00
"USW00024257","1986-10-19",80.06,51.98,0.00,0.00,0.00
"USW00024257","1986-10-20",77.00,44.06,0.00,0.00,0.00
"USW00024257","1986-10-21",75.92,44.96,0.00,0.00,0.00
"USW00024257","1986-10-22",80.06,46.04,0.00,0.00,0.00
"USW00024257","1986-10-23",69.08,44.96,33.00,0.00,0.00
"USW00024257","1986-10-24",66.02,53.06,8.00,0.00,0.00
"USW00024257","1986-10-25",78.98,51.08,0.00,0.00,0.00
"USW00024257","1986-10-26",77.00,50.00,28.00,0.00,0.00
"USW00024257","1986-10-27",73.94,51.08,0.00,0.00,0.00
"USW00024257","1986-10-28",71.96,44.96,0.00,0.00,0.00
"USW00024257","1986-10-29",59.00,48.02,66.00,0.00,0.00
"USW00024257","1986-10-30",66.92,48.02,23.00,0.00,0.00
"USW00024257","1986-10-31",71.06,46.94,0.00,0.00,0.00
"USW00024257","1986-11-01",75.92,59.00,0.00,0.00,0.00
"USW00024257","1986-11-02",82.04,53.96,0.00,0.00,0.00
"USW00024257","1986-11-03",84.92,46.04,0.00,0.00,0.00
"USW00024257","1986-11-04",87.08,46.94,0.00,0.00,0.00
"USW00024257","1986-11-05",78.08,42.08,0.00,0.00,0.00
"USW00024257","1986-11-06",68.00,46.94,0.00,0.00,0.00
"USW00024257","1986-11-07",64.94,39.92,0.00,0.00,0.00
"USW00024257","1986-11-08",64.94,33.08,0.00,0.00,0.00
"USW00024257","1986-11-09",71.06,41.00,0.00,0.00,0.00
"USW00024257","1986-11-10",75.02,53.06,0.00,0.00,0.00
"USW00024257","1986-11-11",78.98,46.04,0.00,0.00,0.00
"USW00024257","1986-11-12",78.98,46.94,0.00,0.00,0.00
"USW00024257","1986-11-13",71.06,39.92,0.00,0.00,0.00
"USW00024257","1986-11-14",59.00,44.06,0.00,0.00,0.00
"USW00024257","1986-11-15",69.08,35.06,0.00,0.00,0.00
"USW00024257","1986-11-16",66.92,33.98,0.00,0.00,0.00
"USW00024257","1986-11-17",71.06,35.06,0.00,0.00,0.00
"USW00024257","1986-11-18",66.02,37.04,8.00,0.00,0.00
"USW00024257","1986-11-19",66.02,44.06,0.00,0.00,0.00
"USW00024257","1986-11-20",57.02,39.02,69.00,0.00,0.00
"USW00024257","1986-11-21",64.04,41.00,0.00,0.00,0.00
"USW00024257","1986-11-22",64.04,42.08,0.00,0.00,0.00
"USW00024257","1986-11-23",68.00,39.02,0.00,0.00,0.00
"USW00024257","1986-11-24",59.00,33.08,0.00,0.00,0.00
"USW00024257","1986-11-25",68.00,37.94,0.00,0.00,0.00
"USW00024257","1986-11-26",55.94,35.96,0.00,0.00,0.00
"USW00024257","1986-11-27",57.02,37.04,0.00,0.00,0.00
"USW00024257","1986-11-28",51.08,37.04,28.00,0.00,0.00
"USW00024257","1986-11-29",60.08,37.04,0.00,0.00,0.00
"USW00024257","1986-11-30",66.92,35.06,0.00,0.00,0.00
"USW00024257","1986-12-01",69.98,28.04,0.00,0.00,0.00
"USW00024257","1986-12-02",66.02,32.00,0.00,0.00,0.00
"USW00024257","1986-12-03",66.92,33.08,0.00,0.00,0.00
"USW00024257","1986-12-04",55.04,39.92,76.00,0.00,0.00
"USW00024257","1986-12-05",51.98,46.04,36.00,0.00,0.00
"USW00024257","1986-12-06",62.06,44.96,0.00,0.00,0.00
"USW00024257","1986-12-07",64.94,48.02,0.00,0.00,0.00
"USW00024257","1986-12-08",60.98,35.06,0.00,0.00,0.00
"USW00024257","1986-12-09",66.02,33.98,0.00,0.00,0.00
"USW00024257","1986-12-10",59.00,28.94,0.00,0.00,0.00
"USW00024257","1986-12-11",48.02,28.04,0.00,0.00,0.00
"USW00024257","1986-12-12",46.94,32.00,0.00,0.00,0.00
"USW00024257","1986-12-13",41.00,35.96,33.00,0.00,0.00
"USW00024257","1986-12-14",55.94,37.94,0.00,0.00,0.00
"USW00024257","1986-12-15",57.92,37.04,0.00,0.00,0.00
"USW00024257","1986-12-16",66.92,32.00,0.00,0.00,0.00
"USW00024257","1986-12-17",60.08,28.94,0.00,0.00,0.00
"USW00024257","1986-12-18",46.94,39.92,43.00,0.00,0.00
"USW00024257","1986-12-19",48.02,41.00,127.00,0.00,0.00
"USW00024257","1986-12-20",60.08,33.08,0.00,0.00,0.00
"USW00024257","1986-12-21",53.96,33.08,0.00,0.00,0.00
"USW00024257","1986-12-22",46.04,39.92,84.00,0.00,0.00
"USW00024257","1986-12-23",59.00,35.06,0.00,0.00,0.00
"USW00024257","1986-12-24",50.00,35.96,0.00,0.00,0.00
"USW00024257","1986-12-25",50.00,33.08,0.00,0.00,0.00
"USW00024257","1986-12-26",60.98,37.04,30.00,0.00,0.00
"USW00024257","1986-12-27",57.02,30.02,0.00,0.00,0.00
"USW00024257","1986-12-28",44.06,37.04,0.00,0.00,0.00
"USW00024257","1986-12-29",46.94,35.96,18.00,0.00,0.00
"USW00024257","1986-12-30",50.00,30.02,0.00,0.00,0.00
"USW00024257","1986-12-31",44.06,37.94,46.00,0.00,0.00
"USW00024257","1987-01-01",46.94,41.00,343.00,0.00,0.00
"USW00024257","1987-01-02",48.02,39.02,36.00,0.00,0.00
"USW00024257","1987-01-03",50.00,44.06,284.00,0.00,0.00
"USW00024257","1987-01-04",50.00,41.00,124.00,0.00,0.00
"USW00024257","1987-01-05",57.02,37.04,13.00,0.00,0.00
"USW00024257","1987-01-06",51.08,37.94,38.00,0.00,0.00
"USW00024257","1987-01-07",53.96,30.92,0.00,0.00,0.00
"USW00024257","1987-01-08",48.02,24.98,0.00,0.00,0.00
"USW00024257","1987-01-09",60.08,30.92,0.00,0.00,0.00
"USW00024257","1987-01-10",57.02,26.96,0.00,0.00,0.00
"USW00024257","1987-01-11",44.06,32.00,0.00,0.00,0.00
"USW00024257","1987-01-12",39.92,30.02,8.00,0.00,0.00
"USW00024257","1987-01-13",55.04,28.04,0.00,0.00,0.00
"USW00024257","1987-01-14",59.00,28.04,0.00,0.00,0.00
"USW00024257","1987-01-15",46.94,26.06,0.00,0.00,0.00
"USW00024257","1987-01-16",51.98,30.02,0.00,0.00,0.00
"USW00024257","1987-01-17",64.04,35.96,0.00,0.00,0.00
"USW00024257","1987-01-18",55.04,28.04,0.00,0.00,0.00
"USW00024257","1987-01-19",60.08,24.98,0.00,0.00,0.00
"USW00024257","1987-01-20",64.04,33.08,0.00,0.00,0.00
"USW00024257","1987-01-21",57.02,24.98,0.00,0.00,0.00
"USW00024257","1987-01-22",48.02,30.02,13.00,0.00,0.00
"USW00024257","1987-01-23",42.98,37.94,147.00,0.00,0.00
"USW00024257","1987-01-24",44.06,39.02,320.00,0.00,0.00
"USW00024257","1987-01-25",48.92,42.08,43.00,0.00,0.00
"USW00024257","1987-01-26",60.98,41.00,0.00,0.00,0.00
"USW00024257","1987-01-27",53.96,35.06,157.00,0.00,0.00
"USW00024257","1987-01-28",53.06,39.92,8.00,0.00,0.00
"USW00024257","1987-01-29",53.96,39.02,8.00,0.00,0.00
"USW00024257","1987-01-30",53.06,35.96,239.00,0.00,0.00
"USW00024257","1987-01-31",53.06,35.06,0.00,0.00,0.00
"USW00024257","1987-02-01",44.96,39.02,0.00,0.00,0.00
"USW00024257","1987-02-02",46.94,42.98,264.00,0.00,0.00
"USW00024257","1987-02-03",62.06,37.04,0.00,0.00,0.00
"USW00024257","1987-02-04",68.00,33.08,0.00,0.00,0.00
"USW00024257","1987-02-05",69.98,35.06,0.00,0.00,0.00
"USW00024257","1987-02-06",75.92,32.00,0.00,0.00,0.00
"USW00024257","1987-02-07",75.02,35.96,0.00,0.00,0.00
"USW00024257","1987-02-08",69.98,37.04,0.00,0.00,0.00
"USW00024257","1987-02-09",57.02,44.96,23.00,0.00,0.00
"USW00024257","1987-02-10",55.94,50.00,122.00,0.00,0.00
"USW00024257","1987-02-11",62.06,39.92,30.00,0.00,0.00
"USW00024257","1987-02-12",53.06,41.00,363.00,0.00,0.00
"USW00024257","1987-02-13",60.98,42.08,64.00,0.00,0.00
"USW00024257","1987-02-14",53.96,33.98,122.00,0.00,0.00
"USW00024257","1987-02-15",55.94,39.92,262.00,0.00,0.00
"USW00024257","1987-02-16",60.08,32.00,0.00,0.00,0.00
"USW00024257","1987-02-17",64.94,44.06,0.00,0.00,0.00
"USW00024257","1987-02-18",60.98,37.94,0.00,0.00,0.00
"USW00024257","1987-02-19",64.04,44.06,0.00,0.00,0.00
"USW00024257","1987-02-20",66.02,39.02,0.00,0.00,0.00
"USW00024257","1987-02-21",60.08,33.98,13.00,0.00,0.00
"USW00024257","1987-02-22",64.94,46.94,0.00,0.00,0.00
"USW00024257","1987-02-23",55.04,33.08,0.00,0.00,0.00
"USW00024257","1987-02-24",55.04,28.94,0.00,0.00,0.00
"USW00024257","1987-02-25",57.92,33.98,0.00,0.00,0.00
"USW00024257","1987-02-26",64.04,28.04,0.00,0.00,0.00
"USW00024257","1987-02-27",62.96,32.00,0.00,0.00,0.00
"USW00024257","1987-02-28",62.96,30.92,0.00,0.00,0.00
"USW00024257","1987-03-01",62.06,37.04,0.00,0.00,0.00
"USW00024257","1987-03-02",51.08,44.96,104.00,0.00,0.00
"USW00024257","1987-03-03",59.00,48.92,56.00,0.00,0.00
"USW00024257","1987-03-04",62.96,42.98,46.00,0.00,0.00
"USW00024257","1987-03-05",55.94,51.08,439.00,0.00,0.00
"USW00024257","1987-03-06",64.04,41.00,0.00,0.00,0.00
"USW00024257","1987-03-07",62.96,35.06,0.00,0.00,0.00
"USW00024257","1987-03-08",51.98,44.96,0.00,0.00,0.00
"USW00024257","1987-03-09",64.04,44.96,0.00,0.00,0.00
"USW00024257","1987-03-10",55.04,46.94,117.00,0.00,0.00
"USW00024257","1987-03-11",55.94,44.96,130.00,0.00,0.00
"USW00024257","1987-03-12",57.02,48.92,378.00,0.00,0.00
"USW00024257","1987-03-13",60.08,46.04,36.00,0.00,0.00
"USW00024257","1987-03-14",55.04,37.94,150.00,0.00,0.00
"USW00024257","1987-03-15",62.96,33.98,0.00,0.00,0.00
"USW00024257","1987-03-16",66.92,35.96,0.00,0.00,0.00
"USW00024257","1987-03-17",62.06,44.06,0.00,0.00,0.00
"USW00024257","1987-03-18",57.02,37.04,0.00,0.00,0.00
"USW00024257","1987-03-19",55.94,32.00,0.00,0.00,0.00
"USW00024257","1987-03-20",53.96,30.02,25.00,0.00,0.00
"USW00024257","1987-03-21",46.04,33.08,201.00,46.00,0.00
"USW00024257","1987-03-22",59.00,28.94,23.00,0.00,0.00
"USW00024257","1987-03-23",57.02,42.08,74.00,0.00,0.00
"USW00024257","1987-03-24",69.08,37.04,0.00,0.00,0.00
"USW00024257","1987-03-25",71.96,39.02,0.00,0.00,0.00
"USW00024257","1987-03-26",73.94,46.04,0.00,0.00,0.00
"USW00024257","1987-03-27",69.98,42.98,0.00,0.00,0.00
"USW00024257","1987-03-28",73.04,41.00,0.00,0.00,0.00
"USW00024257","1987-03-29",77.00,48.92,0.00,0.00,0.00
"USW00024257","1987-03-30",75.02,42.08,0.00,0.00,0.00
"USW00024257","1987-03-31",78.08,44.06,0.00,0.00,0.00
"USW00024257","1987-04-01",80.96,42.98,0.00,0.00,0.00
"USW00024257","1987-04-02",69.98,42.98,0.00,0.00,0.00
"USW00024257","1987-04-03",66.02,48.02,0.00,0.00,0.00
"USW00024257","1987-04-04",73.94,39.92,0.00,0.00,0.00
"USW00024257","1987-04-05",69.08,42.98,0.00,0.00,0.00
"USW00024257","1987-04-06",71.96,42.98,0.00,0.00,0.00
"USW00024257","1987-04-07",78.98,42.08,0.00,0.00,0.00
"USW00024257","1987-04-08",80.96,48.92,0.00,0.00,0.00
"USW00024257","1987-04-09",84.02,55.94,0.00,0.00,0.00
"USW00024257","1987-04-10",73.94,51.08,5.00,0.00,0.00
"USW00024257","1987-04-11",69.98,48.02,0.00,0.00,0.00
"USW00024257","1987-04-12",75.92,46.94,0.00,0.00,0.00
"USW00024257","1987-04-13",77.00,41.00,0.00,0.00,0.00
"USW00024257","1987-04-14",80.06,46.04,0.00,0.00,0.00
"USW00024257","1987-04-15",86.00,48.92,0.00,0.00,0.00
"USW00024257","1987-04-16",86.00,48.02,0.00,0.00,0.00
"USW00024257","1987-04-17",73.04,48.02,0.00,0.00,0.00
"USW00024257","1987-04-18",64.94,46.04,0.00,0.00,0.00
"USW00024257","1987-04-19",73.04,44.06,0.00,0.00,0.00
"USW00024257","1987-04-20",84.02,53.06,0.00,0.00,0.00
"USW00024257","1987-04-21",87.08,46.04,0.00,0.00,0.00
"USW00024257","1987-04-22",84.92,48.92,0.00,0.00,0.00
"USW00024257","1987-04-23",80.06,48.92,0.00,0.00,0.00
"USW00024257","1987-04-24",84.92,42.98,0.00,0.00,0.00
"USW00024257","1987-04-25",89.96,46.94,0.00,0.00,0.00
"USW00024257","1987-04-26",93.02,48.92,0.00,0.00,0.00
"USW00024257","1987-04-27",91.94,57.02,0.00,0.00,0.00
"USW00024257","1987-04-28",82.04,59.00,0.00,0.00,0.00
"USW00024257","1987-04-29",80.96,50.00,0.00,0.00,0.00
"USW00024257","1987-04-30",69.08,53.06,30.00,0.00,0.00
"USW00024257","1987-05-01",69.08,50.00,3.00,0.00,0.00
"USW00024257","1987-05-02",75.02,44.96,0.00,0.00,0.00
"USW00024257","1987-05-03",89.96,55.04,0.00,0.00,0.00
"USW00024257","1987-05-04",95.00,51.08,0.00,0.00,0.00
"USW00024257","1987-05-05",100.94,57.92,0.00,0.00,0.00
"USW00024257","1987-05-06",104.00,57.02,0.00,0.00,0.00
"USW00024257","1987-05-07",100.94,57.02,0.00,0.00,0.00
"USW00024257","1987-05-08",95.00,64.04,0.00,0.00,0.00
"USW00024257","1987-05-09",89.06,62.96,0.00,0.00,0.00
"USW00024257","1987-05-10",98.06,53.96,0.00,0.00,0.00
"USW00024257","1987-05-11",100.94,62.06,0.00,0.00,0.00
"USW00024257","1987-05-12",96.98,60.08,0.00,0.00,0.00
"USW00024257","1987-05-13",96.08,64.04,0.00,0.00,0.00
"USW00024257","1987-05-14",100.04,60.98,0.00,0.00,0.00
"USW00024257","1987-05-15",98.96,66.02,0.00,0.00,0.00
"USW00024257","1987-05-16",87.08,69.08,0.00,0.00,0.00
"USW00024257","1987-05-17",84.02,62.06,0.00,0.00,0.00
"USW00024257","1987-05-18",82.94,55.04,0.00,0.00,0.00
"USW00024257","1987-05-19",84.02,57.02,0.00,0.00,0.00
"USW00024257","1987-05-20",82.04,55.94,0.00,0.00,0.00
"USW00024257","1987-05-21",78.98,55.94,0.00,0.00,0.00
"USW00024257","1987-05-22",84.02,53.06,0.00,0.00,0.00
"USW00024257","1987-05-23",84.02,53.96,0.00,0.00,0.00
"USW00024257","1987-05-24",73.94,51.08,0.00,0.00,0.00
"USW00024257","1987-05-25",71.96,51.98,0.00,0.00,0.00
"USW00024257","1987-05-26",73.04,50.00,0.00,0.00,0.00
"USW00024257","1987-05-27",80.06,57.92,0.00,0.00,0.00
"USW00024257","1987-05-28",84.02,53.06,0.00,0.00,0.00
"USW00024257","1987-05-29",80.96,60.08,0.00,0.00,0.00
"USW00024257","1987-05-30",75.92,57.92,0.00,0.00,0.00
"USW00024257","1987-05-31",80.06,60.08,0.00,0.00,0.00
"USW00024257","1987-06-01",91.94,60.98,0.00,0.00,0.00
"USW00024257","1987-06-02",102.02,71.06,0.00,0.00,0.00
"USW00024257","1987-06-03",100.94,62.06,0.00,0.00,0.00
"USW00024257","1987-06-04",91.94,64.94,0.00,0.00,0.00
"USW00024257","1987-06-05",89.06,60.08,0.00,0.00,0.00
"USW00024257","1987-06-06",89.96,57.02,0.00,0.00,0.00
"USW00024257","1987-06-07",86.00,68.00,0.00,0.00,0.00
"USW00024257","1987-06-08",96.08,64.94,0.00,0.00,0.00
"USW00024257","1987-06-09",96.98,60.98,0.00,0.00,0.00
"USW00024257","1987-06-10",98.06,71.06,0.00,0.00,0.00
"USW00024257","1987-06-11",96.08,62.96,0.00,0.00,0.00
"USW00024257","1987-06-12",102.02,60.98,0.00,0.00,0.00
"USW00024257","1987-06-13",107.96,60.98,0.00,0.00,0.00
"USW00024257","1987-06-14",84.92,66.02,0.00,0.00,0.00
"USW00024257","1987-06-15",78.08,55.94,0.00,0.00,0.00
"USW00024257","1987-06-16",82.94,60.08,0.00,0.00,0.00
"USW00024257","1987-06-17",84.02,59.00,0.00,0.00,0.00
"USW00024257","1987-06-18",91.94,53.06,0.00,0.00,0.00
"USW00024257","1987-06-19",93.02,55.94,0.00,0.00,0.00
"USW00024257","1987-06-20",86.00,60.98,0.00,0.00,0.00
"USW00024257","1987-06-21",86.00,60.98,0.00,0.00,0.00
"USW00024257","1987-06-22",93.92,62.06,0.00,0.00,0.00
"USW00024257","1987-06-23",100.04,69.08,0.00,0.00,0.00
"USW00024257","1987-06-24",107.96,60.98,0.00,0.00,0.00
"USW00024257","1987-06-25",111.02,68.00,0.00,0.00,0.00
"USW00024257","1987-06-26",111.02,71.06,0.00,0.00,0.00
"USW00024257","1987-06-27",104.00,71.96,0.00,0.00,0.00
"USW00024257","1987-06-28",96.08,68.00,0.00,0.00,0.00
"USW00024257","1987-06-29",96.08,68.00,0.00,0.00,0.00
"USW00024257","1987-06-30",96.98,66.92,0.00,0.00,0.00
"USW00024257","1987-07-01",89.06,62.06,0.00,0.00,0.00
"USW00024257","1987-07-02",93.92,62.06,0.00,0.00,0.00
"USW00024257","1987-07-03",89.96,62.96,0.00,0.00,0.00
"USW00024257","1987-07-04",87.98,59.00,0.00,0.00,0.00
"USW00024257","1987-07-05",91.94,62.96,0.00,0.00,0.00
"USW00024257","1987-07-06",98.96,64.04,0.00,0.00,0.00
"USW00024257","1987-07-07",100.04,73.94,0.00,0.00,0.00
"USW00024257","1987-07-08",100.04,73.04,0.00,0.00,0.00
"USW00024257","1987-07-09",102.02,75.02,0.00,0.00,0.00
"USW00024257","1987-07-10",98.06,69.08,0.00,0.00,0.00
"USW00024257","1987-07-11",98.06,66.02,0.00,0.00,0.00
"USW00024257","1987-07-12",98.96,66.02,0.00,0.00,0.00
"USW00024257","1987-07-13",107.96,69.08,0.00,0.00,0.00
"USW00024257","1987-07-14",114.08,73.04,0.00,0.00,0.00
"USW00024257","1987-07-15",105.08,75.02,0.00,0.00,0.00
"USW00024257","1987-07-16",95.00,64.94,0.00,0.00,0.00
"USW00024257","1987-07-17",69.08,60.08,5.00,0.00,0.00
"USW00024257","1987-07-18",78.08,59.00,48.00,0.00,0.00
"USW00024257","1987-07-19",82.94,57.02,0.00,0.00,0.00
"USW00024257","1987-07-20",89.06,57.02,0.00,0.00,0.00
"USW00024257","1987-07-21",75.92,60.08,0.00,0.00,0.00
"USW00024257","1987-07-22",86.00,53.96,0.00,0.00,0.00
"USW00024257","1987-07-23",87.98,59.00,0.00,0.00,0.00
"USW00024257","1987-07-24",91.04,55.94,0.00,0.00,0.00
"USW00024257","1987-07-25",93.02,57.02,0.00,0.00,0.00
"USW00024257","1987-07-26",91.94,57.92,0.00,0.00,0.00
"USW00024257","1987-07-27",91.94,55.04,0.00,0.00,0.00
"USW00024257","1987-07-28",93.92,57.92,0.00,0.00,0.00
"USW00024257","1987-07-29",89.06,62.96,0.00,0.00,0.00
"USW00024257","1987-07-30",91.94,57.92,0.00,0.00,0.00
"USW00024257","1987-07-31",98.96,66.92,0.00,0.00,0.00
"USW00024257","1987-08-01",102.02,62.06,0.00,0.00,0.00
"USW00024257","1987-08-02",107.96,60.98,0.00,0.00,0.00
"USW00024257","1987-08-03",111.02,62.06,0.00,0.00,0.00
"USW00024257","1987-08-04",107.96,66.02,0.00,0.00,0.00
"USW00024257","1987-08-05",109.94,69.08,0.00,0.00,0.00
"USW00024257","1987-08-06",105.98,68.00,0.00,0.00,0.00
"USW00024257","1987-08-07",107.96,66.92,0.00,0.00,0.00
"USW00024257","1987-08-08",100.94,64.04,0.00,0.00,0.00
"USW00024257","1987-08-09",100.04,64.04,0.00,0.00,0.00
"USW00024257","1987-08-10",93.92,64.04,0.00,0.00,0.00
"USW00024257","1987-08-11",96.98,57.92,0.00,0.00,0.00
"USW00024257","1987-08-12",95.00,59.00,0.00,0.00,0.00
"USW00024257","1987-08-13",89.06,60.08,0.00,0.00,0.00
"USW00024257","1987-08-14",80.96,59.00,0.00,0.00,0.00
"USW00024257","1987-08-15",91.94,57.02,0.00,0.00,0.00
"USW00024257","1987-08-16",98.96,59.00,0.00,0.00,0.00
"USW00024257","1987-08-17",102.92,60.98,0.00,0.00,0.00
"USW00024257","1987-08-18",98.96,62.96,0.00,0.00,0.00
"USW00024257","1987-08-19",89.96,60.98,0.00,0.00,0.00
"USW00024257","1987-08-20",91.04,57.92,0.00,0.00,0.00
"USW00024257","1987-08-21",93.92,59.00,0.00,0.00,0.00
"USW00024257","1987-08-22",91.94,64.94,0.00,0.00,0.00
"USW00024257","1987-08-23",91.94,57.02,0.00,0.00,0.00
"USW00024257","1987-08-24",102.02,57.02,0.00,0.00,0.00
"USW00024257","1987-08-25",105.08,60.98,0.00,0.00,0.00
"USW00024257","1987-08-26",100.04,60.98,0.00,0.00,0.00
"USW00024257","1987-08-27",100.04,64.04,0.00,0.00,0.00
"USW00024257","1987-08-28",102.02,62.06,0.00,0.00,0.00
"USW00024257","1987-08-29",109.04,64.04,0.00,0.00,0.00
"USW00024257","1987-08-30",109.94,71.06,0.00,0.00,0.00
"USW00024257","1987-08-31",111.02,71.96,0.00,0.00,0.00
"USW00024257","1987-09-01",105.08,69.08,0.00,0.00,0.00
"USW00024257","1987-09-02",100.04,71.06,0.00,0.00,0.00
"USW00024257","1987-09-03",93.92,59.00,0.00,0.00,0.00
"USW00024257","1987-09-04",91.04,55.94,0.00,0.00,0.00
"USW00024257","1987-09-05",86.00,51.98,0.00,0.00,0.00
"USW00024257","1987-09-06",82.94,51.98,0.00,0.00,0.00
"USW00024257","1987-09-07",84.02,55.94,0.00,0.00,0.00
"USW00024257","1987-09-08",89.06,57.02,0.00,0.00,0.00
"USW00024257","1987-09-09",95.00,55.94,0.00,0.00,0.00
"USW00024257","1987-09-10",89.06,55.04,0.00,0.00,0.00
"USW00024257","1987-09-11",87.08,53.06,0.00,0.00,0.00
"USW00024257","1987-09-12",84.92,51.08,0.00,0.00,0.00
"USW00024257","1987-09-13",78.98,55.94,0.00,0.00,0.00
"USW00024257","1987-09-14",82.04,51.98,0.00,0.00,0.00
"USW00024257","1987-09-15",87.08,53.06,0.00,0.00,0.00
"USW00024257","1987-09-16",89.06,64.04,0.00,0.00,0.00
"USW00024257","1987-09-17",95.00,60.98,0.00,0.00,0.00
"USW00024257","1987-09-18",93.02,51.98,0.00,0.00,0.00
"USW00024257","1987-09-19",93.92,51.98,0.00,0.00,0.00
"USW00024257","1987-09-20",100.94,50.00,0.00,0.00,0.00
"USW00024257","1987-09-21",107.96,51.98,0.00,0.00,0.00
"USW00024257","1987-09-22",100.94,53.96,0.00,0.00,0.00
"USW00024257","1987-09-23",93.02,55.04,0.00,0.00,0.00
"USW00024257","1987-09-24",84.02,57.92,0.00,0.00,0.00
"USW00024257","1987-09-25",89.06,55.94,0.00,0.00,0.00
"USW00024257","1987-09-26",89.96,59.00,0.00,0.00,0.00
"USW00024257","1987-09-27",96.08,57.02,0.00,0.00,0.00
"USW00024257","1987-09-28",98.06,48.02,0.00,0.00,0.00
"USW00024257","1987-09-29",102.02,51.98,0.00,0.00,0.00
"USW00024257","1987-09-30",104.00,53.06,0.00,0.00,0.00
"USW00024257","1987-10-01",100.94,55.04,0.00,0.00,0.00
"USW00024257","1987-10-02",96.98,55.94,0.00,0.00,0.00
"USW00024257","1987-10-03",98.96,57.02,0.00,0.00,0.00
"USW00024257","1987-10-04",102.02,57.92,0.00,0.00,0.00
"USW00024257","1987-10-05",100.94,62.06,0.00,0.00,0.00
"USW00024257","1987-10-06",102.92,55.94,0.00,0.00,0.00
"USW00024257","1987-10-07",91.04,55.04,0.00,0.00,0.00
"USW00024257","1987-10-08",95.00,53.06,0.00,0.00,0.00
"USW00024257","1987-10-09",84.02,55.04,0.00,0.00,0.00
"USW00024257","1987-10-10",78.08,53.06,0.00,0.00,0.00
"USW00024257","1987-10-11",89.96,50.00,0.00,0.00,0.00
"USW00024257","1987-10-12",80.96,57.02,13.00,0.00,0.00
"USW00024257","1987-10-13",89.06,46.94,0.00,0.00,0.00
"USW00024257","1987-10-14",82.94,41.00,0.00,0.00,0.00
"USW00024257","1987-10-15",86.00,42.98,0.00,0.00,0.00
"USW00024257","1987-10-16",82.94,42.98,0.00,0.00,0.00
"USW00024257","1987-10-17",87.08,42.98,0.00,0.00,0.00
"USW00024257","1987-10-18",86.00,41.00,0.00,0.00,0.00
"USW00024257","1987-10-19",87.98,41.00,0.00,0.00,0.00
"USW00024257","1987-10-20",86.00,42.08,0.00,0.00,0.00
"USW00024257","1987-10-21",82.04,48.92,0.00,0.00,0.00
"USW00024257","1987-10-22",75.92,57.02,51.00,0.00,0.00
"USW00024257","1987-10-23",71.96,57.92,38.00,0.00,0.00
"USW00024257","1987-10-24",78.98,51.08,0.00,0.00,0.00
"USW00024257","1987-10-25",86.00,46.94,0.00,0.00,0.00
"USW00024257","1987-10-26",89.06,44.96,0.00,0.00,0.00
"USW00024257","1987-10-27",87.98,51.98,0.00,0.00,0.00
"USW00024257","1987-10-28",66.92,53.96,20.00,0.00,0.00
"USW00024257","1987-10-29",69.08,48.92,0.00,0.00,0.00
"USW00024257","1987-10-30",66.92,53.06,0.00,0.00,0.00
"USW00024257","1987-10-31",75.02,44.96,0.00,0.00,0.00
"USW00024257","1987-11-01",60.98,46.94,15.00,0.00,0.00
"USW00024257","1987-11-02",64.04,51.08,10.00,0.00,0.00
"USW00024257","1987-11-03",77.00,51.98,0.00,0.00,0.00
"USW00024257","1987-11-04",82.94,48.02,0.00,0.00,0.00
"USW00024257","1987-11-05",64.94,46.04,0.00,0.00,0.00
"USW00024257","1987-11-06",60.08,53.96,0.00,0.00,0.00